Johnstown, PA

8:53 PM EDT on May 26, 2017 (GMT -0400)
Johnstown-Cambria County

Weather History for KJST - February, 2014

Change the Weather History Date:

Tuesday, February 18, 2014

  Actual Average Record
Temperature  
Mean Temperature 29 °F 28 °F  
Max Temperature 38 °F 35 °F 70 °F (1981)
Min Temperature 20 °F 20 °F -8 °F (1958)
Degree Days  
Heating Degree Days 36 37  
Month to date heating degree days 815 700  
Since 1 July heating degree days 4934 4517  
Cooling Degree Days 0 0  
Month to date cooling degree days 0 0  
Year to date cooling degree days 0 0  
Moisture  
Dew Point 24 °F    
Average Humidity 76    
Maximum Humidity 100    
Minimum Humidity 52    
Precipitation  
Precipitation 0.32 in 0.08 in 1.04 in (1893)
Month to date precipitation 2.56 1.49  
Year to date precipitation 3.44 4.37  
Sea Level Pressure  
Sea Level Pressure 29.90 in    
Wind  
Wind Speed 15 mph (SSW)    
Max Wind Speed 28 mph    
Max Gust Speed 39 mph    
Visibility 4 miles    
Events Fog , Snow , Thunderstorm    
T = Trace of Precipitation, MM = Missing Value Source: NWS Daily Summary

Daily Weather History Graph

Daily Weather History Graph

Search for Another Location

Airport or City:

Trip Planner

Search our weather history database for the weather conditions in past years. The results will help you decide how hot, cold, wet, or windy it might be!

Date:

Astronomy

Feb. 18, 2014 Rise Set
Actual Time 7:04 AM EST 5:54 PM EST
Civil Twilight 6:36 AM EST 6:22 PM EST
Nautical Twilight 6:05 AM EST 6:53 PM EST
Astronomical Twilight 5:33 AM EST 7:25 PM EST
Moon 9:46 PM EST (2/18) 8:35 AM EST (2/18)
Length of Visible Light 11h 45m
Length of Day
10h 49m
Waning Gibbous, 87% of the Moon is Illuminated
Feb 18
Waning Gibbous
Feb 22
Last Quarter
Mar 1
New
Mar 8
First Quarter
Mar 16
Full

Hourly Weather History & Observations

Time (EST) Temp. Windchill Dew Point Humidity Pressure Visibility Wind Dir Wind Speed Gust Speed Precip Events Conditions
12:08 AM 19.9 °F 3.5 °F 16.0 °F 85% 29.86 in 8.0 mi SSE 21.9 mph 31.1 mph N/A   Overcast
12:23 AM 19.9 °F 1.8 °F 16.0 °F 85% 29.86 in 5.0 mi SSE 27.6 mph 38.0 mph 0.00 in   Overcast
12:37 AM 19.9 °F 4.3 °F 17.1 °F 89% 29.84 in 2.5 mi SSE 19.6 mph 38.0 mph 0.00 in Snow Light Snow
12:54 AM 19.9 °F 4.8 °F 17.1 °F 89% 29.96 in 1.5 mi SSE 18.4 mph 26.5 mph 0.00 in Snow Light Snow
1:39 AM 21.0 °F 6.6 °F 18.0 °F 88% 29.86 in 1.0 mi South 17.3 mph 28.8 mph 0.00 in Snow Light Snow
1:54 AM 21.0 °F 6.2 °F 18.0 °F 88% 29.96 in 2.0 mi South 18.4 mph - 0.00 in Snow Light Snow
2:07 AM 21.0 °F 7.1 °F 18.0 °F 88% 29.87 in 4.0 mi South 16.1 mph - 0.00 in Snow Light Snow
2:54 AM 21.9 °F 9.8 °F 18.0 °F 85% 29.94 in 10.0 mi SSW 12.7 mph 23.0 mph 0.00 in   Overcast
3:33 AM 23.0 °F 9.6 °F 19.9 °F 88% 29.82 in 2.5 mi South 16.1 mph - 0.00 in Snow Light Snow
3:45 AM 23.0 °F 9.6 °F 19.9 °F 88% 29.81 in 5.0 mi South 16.1 mph - 0.00 in Snow Light Snow
3:54 AM 23.0 °F 9.6 °F 19.9 °F 88% 29.91 in 7.0 mi South 16.1 mph 24.2 mph 0.00 in   Overcast
4:09 AM 23.0 °F 8.3 °F 21.0 °F 92% 29.80 in 2.5 mi South 19.6 mph - 0.00 in Snow Light Snow
4:18 AM 23.0 °F 8.3 °F 21.0 °F 92% 29.80 in 4.0 mi South 19.6 mph - 0.00 in Snow Light Snow
4:38 AM 25.0 °F 10.6 °F 21.9 °F 88% 29.79 in 3.0 mi South 20.7 mph - 0.00 in Snow Light Snow
4:41 AM 25.0 °F 10.9 °F 21.9 °F 88% 29.79 in 2.5 mi South 19.6 mph - 0.00 in Snow Light Snow
4:49 AM 24.8 °F 11.9 °F 23.0 °F 93% 29.79 in 1.0 mi South 16.1 mph - 0.00 in Snow Light Snow
4:54 AM 25.0 °F 11.7 °F 23.0 °F 92% 29.88 in 1.0 mi South 17.3 mph - 0.00 in Snow Light Snow
5:04 AM 26.1 °F 15.0 °F 23.0 °F 88% 29.79 in 0.8 mi South 12.7 mph - 0.00 in Snow Light Snow
5:20 AM 25.0 °F 13.1 °F 24.1 °F 96% 29.80 in 0.5 mi South 13.8 mph - 0.01 in Fog , Snow Snow
5:54 AM 26.1 °F 16.2 °F 25.0 °F 96% 29.89 in 0.8 mi South 10.4 mph - 0.02 in Snow Light Snow
6:03 AM 27.0 °F 17.3 °F 26.1 °F 96% 29.80 in 0.5 mi South 10.4 mph - 0.01 in Fog , Snow Snow
6:22 AM 28.0 °F 19.3 °F 27.0 °F 96% 29.80 in 1.2 mi South 9.2 mph - 0.01 in Snow Light Snow
6:54 AM 30.0 °F 19.1 °F 28.9 °F 96% 29.88 in 1.8 mi SSW 15.0 mph 21.9 mph 0.02 in Snow Light Snow
7:04 AM 30.9 °F 21.2 °F 28.9 °F 92% 29.79 in 2.0 mi SSW 12.7 mph - 0.00 in Snow Light Snow
7:13 AM 30.9 °F 20.7 °F 28.9 °F 92% 29.79 in 2.0 mi SSW 13.8 mph 20.7 mph 0.00 in Snow Light Snow
7:41 AM 30.9 °F 19.4 °F 28.0 °F 89% 29.80 in 1.0 mi WSW 17.3 mph - 0.00 in Snow Light Snow
7:45 AM 30.9 °F 19.1 °F 28.0 °F 89% 29.80 in 0.8 mi SW 18.4 mph 27.6 mph 0.00 in Snow Light Snow
7:54 AM 30.9 °F 18.7 °F 28.9 °F 92% 29.89 in 0.5 mi SW 19.6 mph - 0.00 in Fog , Snow Snow
8:17 AM 30.0 °F 18.3 °F 28.9 °F 96% 29.81 in 0.5 mi WSW 17.3 mph 25.3 mph 0.00 in Fog , Snow Snow
8:46 AM 30.0 °F 17.5 °F 28.9 °F 96% 29.82 in 0.2 mi WSW 19.6 mph 33.4 mph 0.00 in Fog , Snow Snow
8:54 AM 30.0 °F 17.2 °F 28.9 °F 96% 29.91 in 0.2 mi WSW 20.7 mph 29.9 mph 0.00 in Fog , Snow Snow
9:12 AM 30.0 °F 17.9 °F 28.9 °F 96% 29.83 in 0.2 mi WSW 18.4 mph 29.9 mph 0.00 in Fog , Snow , Thunderstorm Snow
9:27 AM 30.0 °F 16.6 °F 28.9 °F 96% 29.84 in 0.2 mi West 23.0 mph 39.1 mph 0.01 in Fog , Snow Snow
9:54 AM 28.9 °F 18.2 °F 28.0 °F 96% 29.96 in 0.5 mi WNW 13.8 mph 27.6 mph 0.03 in Fog , Snow Snow
10:08 AM 28.9 °F 17.7 °F 28.0 °F 96% 29.87 in 0.2 mi West 15.0 mph 25.3 mph 0.01 in Fog , Snow Light Snow
10:15 AM 28.9 °F 17.3 °F 28.0 °F 96% 29.88 in 0.5 mi West 16.1 mph 25.3 mph 0.01 in Fog , Snow Light Snow
10:46 AM 28.9 °F 17.3 °F 28.0 °F 96% 29.90 in 1.5 mi West 16.1 mph 25.3 mph 0.02 in Snow Light Snow
10:54 AM 28.9 °F 16.5 °F 28.0 °F 96% 29.99 in 1.5 mi West 18.4 mph 28.8 mph 0.02 in Snow Light Snow
11:18 AM 28.9 °F 15.8 °F 28.0 °F 96% 29.91 in 2.5 mi West 20.7 mph 28.8 mph 0.00 in   Overcast
11:30 AM 28.9 °F 15.8 °F 27.0 °F 92% 29.91 in 1.5 mi West 20.7 mph 32.2 mph 0.00 in Snow Light Snow
11:52 AM 30.2 °F 16.8 °F 28.4 °F 93% 29.92 in 2.5 mi West 23.0 mph 32.2 mph 0.00 in   Overcast
11:54 AM 30.0 °F 17.2 °F 27.0 °F 88% 30.01 in 2.5 mi West 20.7 mph 29.9 mph 0.00 in   Overcast
12:16 PM 30.0 °F 17.5 °F 28.0 °F 92% 29.92 in 4.0 mi West 19.6 mph 24.2 mph 0.00 in   Overcast
12:54 PM 30.9 °F 19.8 °F 28.0 °F 89% 30.01 in 7.0 mi West 16.1 mph 28.8 mph 0.00 in   Overcast
1:54 PM 32.0 °F 21.2 °F 26.1 °F 79% 30.04 in 8.0 mi WSW 16.1 mph 27.6 mph N/A   Overcast
2:54 PM 34.0 °F 23.4 °F 26.1 °F 73% 30.05 in 10.0 mi SW 17.3 mph - N/A   Overcast
3:38 PM 36.0 °F 27.1 °F 26.1 °F 67% 29.96 in 10.0 mi West 13.8 mph 23.0 mph N/A   Scattered Clouds
3:54 PM 37.0 °F 27.7 °F 26.1 °F 65% 30.04 in 10.0 mi WSW 16.1 mph 23.0 mph N/A   Clear
4:54 PM 37.9 °F 27.9 °F 25.0 °F 60% 30.04 in 10.0 mi West 19.6 mph 26.5 mph N/A   Clear
5:54 PM 37.0 °F 28.1 °F 21.9 °F 54% 30.04 in 10.0 mi West 15.0 mph 24.2 mph N/A   Clear
6:54 PM 35.1 °F 29.3 °F 19.9 °F 54% 30.04 in 10.0 mi South 6.9 mph - N/A   Clear
7:54 PM 35.1 °F 29.3 °F 19.0 °F 52% 30.04 in 10.0 mi South 6.9 mph - N/A   Clear
8:54 PM 36.0 °F 29.6 °F 19.0 °F 50% 30.03 in 10.0 mi SSW 8.1 mph - N/A   Clear
9:52 PM 33.8 °F 27.7 °F 23.0 °F 65% 29.94 in 1.2 mi South 6.9 mph - 0.00 in Snow Light Snow
9:54 PM 33.1 °F 26.9 °F 26.1 °F 75% 30.01 in 1.2 mi South 6.9 mph - 0.00 in Snow Light Snow
10:01 PM 35.1 °F 29.3 °F 26.1 °F 70% 29.94 in 5.0 mi South 6.9 mph - 0.03 in   Haze
10:54 PM 34.0 °F 27.2 °F 18.0 °F 52% 30.02 in 10.0 mi SW 8.1 mph - 0.23 in   Clear
11:54 PM 33.1 °F 23.9 °F 18.0 °F 54% 29.97 in 10.0 mi South 12.7 mph - N/A   Clear